Skip Page Navigation
NASA JPL Caltech
NASA Logo - Jet Propulsion Laboratory + View the NASA Portal
+ Near-Earth Object (NEO) Program
Search JPL
JPL Home Earth Solar System Stars & Galaxies Technology
JPL Solar System Dynamics
BODIES ORBITS EPHEMERIDES TOOLS PHYSICAL DATA DISCOVERY FAQ SITE MAP
JPL Small-Body Database Browser
Search: [ help ]  
10811 Lau (1993 FM19)
Classification: Main-belt Asteroid          SPK-ID: 2010811
Ephemeris | Orbit Diagram | Orbital Elements | Physical Parameters | Discovery Circumstances | Close-Approach Data ]

[ show orbit diagram ]
Orbital Elements at Epoch 2456800.5 (2014-May-23.0) TDB
Reference: JPL 3 (heliocentric ecliptic J2000)
 Element Value Uncertainty (1-sigma)   Units 
e .2240291508988044 6.6698e-08  
a 2.92823041881603 3.2116e-08 AU
q 2.272221444452625 1.8891e-07 AU
i 7.177813175373267 7.3856e-06 deg
node 120.4506201319086 5.5586e-05 deg
peri 289.8208478943892 5.8325e-05 deg
M 203.2846264161091 2.0504e-05 deg
tp 2457597.237759749545
(2016-Jul-27.73775975)
0.00011111 JED
period 1830.232650125396
5.01
3.011e-05
8.244e-08
d
yr
n .1966963052349302 3.2359e-09 deg/d
Q 3.584239393179435 3.9311e-08 AU
  Orbit Determination Parameters
   # obs. used (total)      1015  
   data-arc span      11436 days (31.31 yr)  
   first obs. used      1982-01-19  
   last obs. used      2013-05-12  
   planetary ephem.      DE431  
   SB-pert. ephem.      SB431-BIG16  
   condition code      0  
   fit RMS      .54073  
   data source      ORB  
   producer      Otto Matic  
   solution date      2013-Aug-05 16:42:42  

Additional Information
 Earth MOID = 1.29396 AU 
 T_jup = 3.228 
[ show covariance matrix ]

Ephemeris | Orbit Diagram | Orbital Elements | Physical Parameters | Discovery Circumstances | Close-Approach Data ]

Physical Parameter Table
Parameter Symbol Value Units Sigma Reference Notes
absolute magnitude H 12.5 mag n/a MPO263446  

10811 Lau           Discovered 1993 Mar. 17 at the European Southern Observatory in the course of the Uppsala-ESO Survey of Asteroids and Comets.
Lau is a parish on southern Gotland. The resonating echo in its large church lasts for up to twelve seconds.
NOTE: some special characters may not display properly (any characters within {} are an attempt to place the proper accent above a character)
Reference: 20060219/MPCPages.arcLast Updated: 2010-06-03

[ show close-approach data ]
Alternate Designations
 1993 FM19 = 1982 BK9 = 1990 RE12 = 1991 YQ 
Ephemeris | Orbit Diagram | Orbital Elements | Physical Parameters | Discovery Circumstances | Close-Approach Data ]
ABOUT SSD CREDITS/AWARDS PRIVACY/COPYRIGHT GLOSSARY LINKS
FirstGov 2014-Apr-16 10:13 UT
(server date/time)  
NASA Home Page
Site Manager:   Donald K. Yeomans
Webmaster  Alan B. Chamberlin